Volver al catálogo

STARLINK-4517

ActivoComunicacionesVLEO
NORAD 53390·PAYLOAD·🇺🇸 United States

Lanzado Aug 10, 2022 desde Cape Canaveral Space Force Station

Loading…

Próximos Pases (próximas 24 horas)

TLE

ActualizadoSource: CelesTrak SupGP

Época: Sep 14, 2026, 21:21 UTC

1 53390C 22097C   26257.89006944 -.00031476  00000+0 -90078-3 0  2578
2 53390  53.1584 348.3562 0001096  80.3006 312.8828 15.35406722    10

Sigue STARLINK-4517 en tiempo real con AllMySat

Download on the App Store